World > North America > United States > Ohio > Obetz  

Obetz, OH Hourly Weather Updates

Feedback E-mail the Weather

Quick Clicks

Obetz, OH Weather Maps

°F °C°F °C
Obetz Weather Map
UTC Time: 4/17/2024, 00:01
Your Time:

Obetz, OH Regional Weather

Expires:202404170100;;867738
ASUS41 KCLE 170000
RWRCLE
OHIO REGIONAL WEATHER ROUNDUP
NATIONAL WEATHER SERVICE WILMINGTON, OH
800 PM EDT TUE APR 16 2024

NOTE: "FAIR" INDICATES FEW OR NO CLOUDS BELOW 12,000 FEET WITH NO
SIGNIFICANT WEATHER AND/OR OBSTRUCTIONS TO VISIBILITY.


OHZ036-037-039>041-045>050-054>059-063>069-073>076-082>088-170100-
  CENTRAL AND SOUTHEAST OHIO
  
CITY           SKY/WX    TMP DP  RH WIND       PRES   REMARKS
COLUMBUS       CLOUDY    81  55  40 SE6       29.92F                  
OSU AIRPORT    FAIR      81  56  42 SE5       29.92F                  
BOLTON FIELD   NOT AVBL                                               
RICKENBACK AFB NOT AVBL                                               
NEWARK         MOCLDY    77  54  44 E5        29.94S                  
MARION         FAIR      74  51  44 E12       29.93F                  
LANCASTER      FAIR      74  60  61 E6        29.94F                  
ZANESVILLE     FAIR      79  48  33 E8        29.96R                  
NEW PHILLY     FAIR      76  40  27 E6        29.99S                  
$$
  

SKY/WX - Weather  TMP - Temperature  DP - Dew Point  RH - Humidity
WIND - Wind Direction/Speed PRES - Barometric Pressure VSB - Visibility
WCI - Wind Chill Index E13G22 Wind - East Wind 13 mph/Gusts of 22 mph

Trending Headlines

Trending Entertainment Headlines

Obetz Radar Loop

Use the map search tool if you want to place a location marker on the radar map...

Obetz Quick Facts

National Two Day Weather Forecast


E-mail the Obetz Weather Forecast

Voice your opinion or tell us about page issues...